STARLINK-11729 [DTC] (64073 NORAD) Tracking and Keplerian Element Data

This shows tracking and keplerian element data for the satellite.

Feedback or suggestion? Click here.




ElementValue
Catalog64073
NameSTARLINK-11729 [DTC]
Epoch Orbit3476
Epoch Day354.02495863
Epoch Year2025
RAAN218.8908
Inclination42.9996
Eccentricity0.0001716
Argument of Perigee279.2784
Mean Anonmoly80.7889
Mean Motion15.70891859
Decay Rate0.00200911
L11 64073U 25107K 25354.02495863 .00200911 00000+0 15284-2 0 9995
L22 64073 42.9996 218.8908 0001716 279.2784 80.7889 15.70891859 34764



Live tracking and technical data element details for STARLINK-11729 [DTC] (NORAD 64073). STARLINK-11729 [DTC] can be tracked NOW for your location showing map with azimuth and elevation plus other details from your city location.







IsCatalogInMostPopularTable: catalog: 64073, numindb: 6
Update: records affected: 1



GetName: 64073 STARLINK-11729 [DTC]

Hit Count: updated at: Tue, 21 Apr 2026 19:58:15 GMT